Regional Weather Roundup
Issued by NWS Sioux Falls, SD

Home | Current Version | Previous Version | Text Only | Print | Product List | Glossary Off
Versions: 1 2 3 4 5 6 7 8 9 10 11 12 13 14 15 16 17 18 19 20 21 22 23 24 25 26 27 28 29 30 31 32 33 34 35 36 37 38 39 40 41 42 43 44 45 46 47 48 49 50

000
ASUS43 KFSD 251010
RWRFSD

WEATHER ROUNDUP FOR SE SOUTH DAKOTA/SW MINNESOTA/NW IOWA
NATIONAL WEATHER SERVICE SIOUX FALLS SD
400 AM CST THU DEC 25 2014

NOTE: "FAIR" INDICATES FEW OR NO CLOUDS BELOW 12,000 FEET WITH NO
SIGNIFICANT WEATHER AND OR OBSTRUCTIONS TO VISIBILITY.


SDZ038>040-050-052>070-251100-
SOUTHEAST SOUTH DAKOTA

CITY           SKY/WX    TMP DP  RH WIND       PRES   REMARKS
CHAMBERLAIN    CLOUDY    27  24  87 CALM      29.49S
HURON          MOCLDY    26  23  88 CALM      29.54R
MADISON        CLOUDY    25  25 100 S3        29.54R
MITCHELL       CLOUDY    27  25  92 E6        29.52F WCI  20
SIOUX FALLS    PTCLDY    27  24  89 S7        29.55R WCI  19
WINNER         FAIR      30  24  78 NW6       29.48R WCI  24
YANKTON        MOCLDY    27  23  86 E5        29.55S WCI  21
$$

MNZ071-072-080-081-089-090-097-098-251100-
SOUTHWEST MINNESOTA

CITY           SKY/WX    TMP DP  RH WIND       PRES   REMARKS
FAIRMONT       CLOUDY    28  25  86 S16       29.61F WCI  17
JACKSON        CLOUDY    30  28  93 S9G18     29.59F WCI  22
LUVERNE        PTCLDY    28  27  93 S6        29.56S WCI  22
MARSHALL       PTCLDY    28  25  86 S5        29.57S WCI  23
MONTEVIDEO     MOCLDY    28  28 100 SW7       29.58S WCI  21
PIPESTONE      MOCLDY    27  27 100 S7        29.54R WCI  19
REDWOOD FALLS  CLOUDY    30  27  88 S10       29.59S WCI  21
TRACY          CLOUDY    30  28  92 S7        29.56S WCI  23
WINDOM         CLOUDY    28  27  93 S9        29.58F WCI  20
WORTHINGTON    CLOUDY    27 -20  12 S12       29.57F WCI  16
$$

IAZ001>003-012>014-020>022-031-032-NEZ013-014-SDZ071-251100-
NORTHWEST IOWA

CITY           SKY/WX    TMP DP  RH WIND       PRES   REMARKS
CHEROKEE       PTCLDY    29  28  95 S12       29.60F WCI  19
DENISON        CLEAR     30  28  93 S12G18    29.62F WCI  21
ESTHERVILLE    CLOUDY    28  27  96 S17       29.60F FOG     WCI  16
LE MARS        PTCLDY    30  28  93 S14       29.57F WCI  20
ORANGE CITY    PTCLDY    28  25  86 S7        29.56F WCI  21
SHELDON        PTCLDY    27  27 100 S10       29.56F WCI  17
SIOUX CITY     PTCLDY    30  26  85 SE12      29.59F WCI  20
SPENCER        CLEAR     29  26  89 S13       29.60S WCI  19
STORM LAKE     CLEAR     27  27 100 S16       29.61F WCI  14
$$

ABBREVIATIONS USED IN REMARKS
   TC - TEMPERATURE IN CELSIUS
  WCI - WIND CHILL INDEX
   HX - HEAT INDEX
  VSB - VISIBILITY




USA.gov is the U.S. government's official web portal to all federal, state and local government web resources and services.